Location: Recife
(8.0585°S, 34.8848°W)
Time: 10:11:35
(UTC-03:00)

SR - Pass Details

Date: 18 April 2026
Orbit: 568 x 852 km, 66.7° (Epoch: 12 May)

Event Time Altitude Azimuth Distance (km) Brightness Sun altitude
Rises 10:52:23 0° 189° (S) 2,777 ? 69.9°
Reaches altitude 10° 10:54:42 10° 182° (S) 1,870 ? 70.1°
Maximum altitude 10:58:38 41° 111° (ESE) 837 ? 70.3°
Drops below altitude 10° 11:02:36 10° 40° (NE) 1,894 ? 70.6°
Sets 11:04:57 0° 33° (NNE) 2,816 ? 70.7°
